Regional Weather Roundup
Issued by NWS

Home | Current Version | Previous Version | Graphics & Text | Print | Product List | Glossary On
Versions: 1 2 3 4 5 6 7 8 9 10 11 12 13 14 15 16 17 18 19 20 21 22 23 24 25 26 27 28 29 30 31 32 33 34 35 36 37 38 39 40 41 42 43 44 45 46 47 48 49 50
000
ASUS43 KLOT 030622
RWRIL

ILLINOIS REGIONAL WEATHER ROUNDUP
NATIONAL WEATHER SERVICE CHICAGO/ROMEOVILLE IL
100 AM CDT THU SEP 03 2015

NOTE: "FAIR" INDICATES FEW OR NO CLOUDS BELOW 12,000 FEET WITH NO
SIGNIFICANT WEATHER AND/OR OBSTRUCTIONS TO VISIBILITY.

* THESE STATIONS ARE NOT UNDER NWS QUALITY CONTROL. THEY ALSO MAY NOT
  REPORT WEATHER SUCH AS PRECIPITATION OR FOG.

ILZ001-002-007-009-015-016-024-030700-
NORTHWEST ILLINOIS

CITY           SKY/WX    TMP DP  RH WIND       PRES   REMARKS
MOLINE         CLOUDY    76  68  76 S7        29.95S
6HR MIN TEMP:  75; 6HR MAX TEMP:  83;

STERLING*      CLOUDY    75  72  88 CALM      29.94S
SAVANNA*       CLOUDY    73  69  87 S3        29.95F
$$

ILZ003-004-008-010-011-017-018-030700-
NORTH CENTRAL ILLINOIS

CITY           SKY/WX    TMP DP  RH WIND       PRES   REMARKS
ROCKFORD       MOCLDY    74  69  85 S5        29.97F
6HR MIN TEMP:  73; 6HR MAX TEMP:  81;

FREEPORT*      CLOUDY    72  68  88 SW7       29.98F
ROCHELLE*      CLOUDY    71  69  94 S5        29.98S
DE KALB*       CLOUDY    72  69  90 CALM      29.98F
PERU*          FAIR      73  68  83 S6        29.98S
$$

ILZ005-006-012>014-019>023-030700-
NORTHEAST ILLINOIS

CITY           SKY/WX    TMP DP  RH WIND       PRES   REMARKS
CHICAGO-OHARE  FAIR      76  68  76 S5        29.96F
6HR MIN TEMP:  76; 6HR MAX TEMP:  85; 6HR PCP: TRACE;

CHICAGO-MIDWAY MOCLDY    79  69  71 S7        29.96F HX  81
6HR MIN TEMP:  79; 6HR MAX TEMP:  87;

AURORA         FAIR      74  68  81 S6        29.98S
6HR MIN TEMP:  74; 6HR MAX TEMP:  83;

LANSING*       FAIR      73  68  86 SW3       29.98S
JOLIET*        MOCLDY    74  72  93 CALM      29.97S
WAUKEGAN       CLOUDY    75  69  81 S6        29.95S
6HR MIN TEMP:  74; 6HR MAX TEMP:  82;

DUPAGE AIRPORT FAIR      72  67  84 S5        29.97S
6HR MIN TEMP:  72; 6HR MAX TEMP:  82;

KANKAKEE*      FAIR      74  70  87 SW6       30.00S
WHEELING       CLOUDY    79  66  64 S5        29.97S HX  81
6HR MIN TEMP:  76; 6HR MAX TEMP:  86;

MORRIS*        FAIR      73  68  85 SW3       29.97S
ROMEOVILLE*    MOCLDY    74  69  86 S5        29.98S
NORTHERLY ISL    N/A     79  67  66 S5          N/A  HX  81
$$

LMZ740>746-030700-
SOUTHERN LAKE MICHIGAN

STATION/POSITION SKY/WX   TEMP    WIND        PRES    VSBY  WAVE
                          AIR SEA DIR/SP/G                  HT/PER
                          (F)     (DEG/KT/KT) (MB)    (MI)  (FT/S)
SOUTHERN BUOY              74 71  220/  8/ 10 1014.0R         0
WILMETTE HARBOR            71 62  330/  2/  2   N/A           0
HARRISON CRIB              80     190/ 10/ 11   N/A
BURNHAM HARBOR             79     200/  5/  6   N/A
CALUMET HARBOR             78     210/  3/  5   N/A
BURNS HARBOR               78     190/  8/ 11 1015.2
MICHIGAN CITY              78     170/ 11/ 13   N/A
MICHIGAN CITY 6N           76 73  210/  6/  8   N/A           1
ST. JOSEPH                 75 74  230/  6/  8   N/A           0
$$

ILZ025>027-034>036-040-047-049-050-058-095>099-030700-
WEST-CENTRAL ILLINOIS

CITY           SKY/WX    TMP DP  RH WIND       PRES   REMARKS
QUINCY         FAIR      74  69  85 S7        29.98S
GALESBURG*     CLOUDY    72  68  87 S5        29.97F
MACOMB*        MOCLDY    73  69  86 S3        30.00S
JACKSONVILLE*  FAIR      75  68  79 S5        29.98S
PITTSFIELD*    FAIR      74  68  83 S3        30.00S
$$

ILZ028>032-037-038-041>044-048-051>054-059>061-030700-
CENTRAL ILLINOIS

CITY           SKY/WX    TMP DP  RH WIND       PRES   REMARKS
PONTIAC        FAIR      69  68  97 CALM      30.00S
BLOOMINGTON    FAIR      71  69  93 SW8       30.01F
DECATUR        FAIR      72  65  78 CALM      30.01S
PEORIA         FAIR      75  66  73 S5        29.98F
6HR MIN TEMP:  75; 6HR MAX TEMP:  87;

LACON*         CLOUDY    74  67  78 CALM      29.97S
LINCOLN*       FAIR      71  66  84 CALM      29.99S
SPRINGFIELD    FAIR      73  68  84 S3        30.00S
6HR MIN TEMP:  72; 6HR MAX TEMP:  87;

TAYLORVILLE    FAIR      72  68  88 S6        30.00F
$$

ILZ033-039-045-046-055>057-062-063-030700-
EAST-CENTRAL ILLINOIS

CITY           SKY/WX    TMP DP  RH WIND       PRES   REMARKS
CHAMPAIGN      FAIR      70  67  90 S5        30.02S
RANTOUL*       FAIR      73  69  89 CALM      30.01S
MATTOON          N/A     74  68  81 S3        30.00F
PARIS*         FAIR      67  66  96 CALM      30.02S
$$

ILZ079-100>102-030700-
SOUTHWEST ILLINOIS

CITY           SKY/WX    TMP DP  RH WIND       PRES   REMARKS
ALTON          FAIR      70  69  95 S3        30.00F
BELLEVILLE     FAIR      72  72 100 CALM      29.99F
CAHOKIA*       FAIR      74  69  85 CALM      29.99F
SPARTA*        FAIR      73  70  91 CALM      30.02S
$$

ILZ064>066-069>071-074>076-080>082-084>086-088>090-092>094-030700-
SOUTH-CENTRAL ILLINOIS

CITY           SKY/WX    TMP DP  RH WIND       PRES   REMARKS
CARBONDALE     FAIR      69  68  96 CALM      30.01S FOG
6HR MIN TEMP:  69; 6HR MAX TEMP:  82;

CAIRO*         FAIR      68  68 100 CALM      30.02S
EFFINGHAM*     FAIR      69  66  90 CALM      30.02F
MARION         FAIR      73  72  94 CALM      30.02S
MT. VERNON     FAIR      66  61  82 CALM      30.02F
CENTRALIA*     FAIR      69  69  98 CALM      30.00F
SALEM*         FAIR      70  67  91 CALM      30.01S
METROPOLIS*    FAIR      69  69 100 CALM      30.03S FOG
$$

ILZ067-068-072-073-078-083-087-091-030700-
SOUTHEAST ILLINOIS

CITY           SKY/WX    TMP DP  RH WIND       PRES   REMARKS
LAWRENCEVILLE  FAIR      70  67  90 CALM      30.01F
FLORA*         FAIR      67  66  95 CALM      30.02S FOG
FAIRFIELD*     FAIR      69  67  94 CALM      30.01S FOG
HARRISBURG*    FAIR      69  68  98 CALM      30.02S
ROBINSON*      FAIR      67  66  96 CALM      30.02F FOG
CARMI*         FAIR      66  66 100 CALM      30.01F
$$

ABBREVIATIONS USED IN REMARKS
   TC - TEMPERATURE IN CELSIUS
  WCI - WIND CHILL INDEX
   HX - HEAT INDEX
  VSB - VISIBILITY
$$



USA.gov is the U.S. government's official web portal to all federal, state and local government web resources and services.